Home   Weather   Mansfield   Past weeks

Flag for USA Past Weather in Mansfield, Texas, USA — Yesterday and Last 2 Weeks

Now
75 °F

Clear.


Feels Like: 76 °F
Forecast: 51 / 74 °F
Wind: 20 mph from South

Location: Burleson-Rendon

Current Time: Apr 25, 2017 at 11:34:41 pm

Latest Report: Apr 25, 2017 at 10:55 pm


Visibility: 10 mi

Pressure: 29.45 "Hg

Humidity: 77%

Dew Point: 67 °F

Location of MansfieldLocation

Past Weather in Mansfield — Graph

°F

Mansfield Temperature Yesterday

Maximum temperature yesterday: 77 °F (at 2:50 pm)
Minimum temperature yesterday: 42 °F (at 3:55 am)
Average temperature yesterday: 57 °F

High & Low Weather Summary for the Past Weeks

 TemperatureHumidityPressure
High84 °F (Apr 21, 3:46 pm)100% (Apr 12, 6:48 am)30.27 "Hg (Apr 12, 6:48 am)
Low42 °F (Apr 24, 3:55 am)27% (Apr 23, 4:52 pm)29.44 "Hg (Apr 25, 7:55 pm)
Average66 °F77%30.00 "Hg
* Reported Apr 10 10:35 pm — Apr 25 10:35 pm, Mansfield, Weather by CustomWeather, © 2017

Note: Actual official high and low records may vary slightly from our data, if they occured in-between our weather recording intervals... More about our weather records

Advertising

Mansfield Weather History for the Previous 24 Hours

Scroll right to see more
 ConditionsComfort  
Time TempWeatherWind HumidityBarometerVisibility
10:35 pm
Tue, Apr 25
76 °FClear.20 mph75%29.46 "Hg10 mi
10:15 pm77 °FClear.15 mph73%29.46 "Hg10 mi
9:55 pm77 °FClear.21 mph73%29.45 "Hg7 mi
9:35 pm77 °FClear.16 mph72%29.45 "Hg7 mi
8:55 pm78 °FClear.16 mph69%29.45 "Hg7 mi
8:35 pm78 °FClear.10 mph68%29.45 "Hg7 mi
7:55 pm80 °FSunny.12 mph66%29.44 "Hg5 mi
6:47 pm81 °FSunny.17 mph62%29.45 "Hg10 mi
5:48 pm82 °FSunny.23 mph58%29.45 "Hg10 mi
4:50 pm84 °FSunny.14 mph55%29.45 "Hg10 mi
3:50 pm84 °FPassing clouds.21 mph55%29.48 "Hg10 mi
2:50 pm84 °FPassing clouds.21 mph55%29.50 "Hg10 mi
1:48 pm82 °FSunny.16 mph55%29.52 "Hg10 mi
12:54 pm82 °FSunny.16 mph55%29.53 "Hg10 mi
11:49 am81 °FSunny.21 mph58%29.55 "Hg10 mi
10:47 am75 °FSunny.21 mph65%29.57 "Hg10 mi
9:48 am72 °FSunny.23 mph69%29.57 "Hg10 mi
8:49 am68 °FSunny.15 mph73%29.57 "Hg10 mi
7:47 am63 °FSunny.12 mph83%29.58 "Hg10 mi
6:46 am61 °FClear.9 mph83%29.57 "Hg10 mi
6:35 am61 °FClear.12 mph82%29.57 "Hg10 mi
6:15 am61 °FClear.9 mph81%29.57 "Hg10 mi
5:55 am61 °FClear.9 mph79%29.58 "Hg10 mi
5:35 am62 °FClear.10 mph77%29.58 "Hg10 mi
5:15 am63 °FClear.13 mph74%29.58 "Hg10 mi
4:55 am63 °FClear.13 mph73%29.58 "Hg10 mi
4:35 am63 °FClear.13 mph72%29.58 "Hg10 mi
4:15 am63 °FClear.13 mph72%29.58 "Hg10 mi
3:55 am63 °FClear.16 mph72%29.58 "Hg10 mi
3:35 am64 °FClear.8 mph71%29.59 "Hg10 mi
2:55 am64 °FClear.15 mph67%29.58 "Hg10 mi
2:15 am65 °FClear.16 mph63%29.60 "Hg10 mi
1:55 am66 °FClear.14 mph61%29.61 "Hg10 mi
1:35 am66 °FClear.13 mph58%29.62 "Hg10 mi
1:15 am67 °FClear.15 mph57%29.62 "Hg10 mi
12:55 am66 °FClear.13 mph58%29.63 "Hg10 mi
12:35 am67 °FClear.15 mph57%29.64 "Hg10 mi
12:15 am67 °FClear.15 mph56%29.64 "Hg10 mi
11:55 pm
Mon, Apr 24
66 °FClear.12 mph58%29.65 "Hg10 mi
11:35 pm66 °FClear.10 mph58%29.66 "Hg10 mi
11:15 pm67 °FClear.9 mph57%29.66 "Hg10 mi
Weather by CustomWeather, © 2017

See weather overviewHow to use our weather pages